Regional Weather Roundup
Issued by NWS Wakefield, VA

Home | Current Version | Previous Version | Graphics & Text | Print | Product List | Glossary On
Versions: 1 2 3 4 5 6 7 8 9 10 11 12 13 14 15 16 17 18 19 20 21 22 23 24 25 26 27 28 29 30 31 32 33 34 35 36 37 38 39 40 41 42 43 44 45 46 47 48 49 50
000
ASUS41 KAKQ 231315
RWRAKQ

REGIONAL WEATHER ROUNDUP
NATIONAL WEATHER SERVICE WAKEFIELD VA
800 AM EST TUE JAN 23 2018

Note: "fair" indicates few or no clouds below 12,000 feet with no
significant weather and/or obstructions to visibility. * = Denotes
station may not report precipitation (e.g., rain,snow,etc.),
thunder or fog.

VAZ042-051-052>054-056-231400-
NORTHERN VIRGINIA

CITY           SKY/WX    TMP DP  RH WIND       PRES   REMARKS
WASH NATIONAL  CLOUDY    54  54 100 S16       29.65F
DULLES         CLOUDY    59  58  96 SW14      29.64R
FORT BELVOIR   CLOUDY    60  58  92 S8        29.65F
QUANTICO       MOCLDY    51  51 100 SW10      29.66F FOG
FREDERICKSBRG* MOCLDY    62  62 100 S12G17    29.66F
STAFFORD*      CLOUDY    61  61 100 S12G17    29.70F
WARRENTON      CLOUDY    57  53  87 CALM      29.65S
CULPEPER*      CLOUDY    51  49  94 CALM      29.66S FOG
MANASSAS*      CLOUDY    60  58  92 S13       29.64F
LEESBURG*      CLOUDY    50  50 100 CALM      29.65F
WINCHESTER     FOG       46  45  93 CALM      29.65S VSB<1/4
FRONT ROYAL*   CLOUDY    50  50 100 E6        29.63R VSB 3/4
LURAY*         CLOUDY    54  54 100 SW6       29.65R
$$

VAZ048-049-060>072-079>083-231400-
CENTRAL AND SOUTH CENTRAL VIRGINIA

CITY           SKY/WX    TMP DP  RH WIND       PRES   REMARKS
RICHMOND       HVY RAIN  61  60  97 S14       29.72F FOG
CHESTERFIELD*  NOT AVBL
PETERSBURG*    RAIN      61  57  88 S6        29.73F
HANOVER        LGT RAIN  61  59  93 S12       29.72F
TAPPAHANNOCK*  LGT RAIN  62  60  95 S14G23    29.72S
QUINTON*       CLOUDY    60  60 100 S8        29.72F
CHARLOTTSVILLE FOG       50  48  93 NW3       29.67R VSB 1/4
GORDONSVILLE*  CLOUDY    60  60  97 SW13G20   29.66S
ORANGE*        CLOUDY    59  57  94 S12       29.65F
LOUISA*        CLOUDY    60  59  94 S9        29.71F
BUMPASS*       CLOUDY    61  59  95 S7        29.68F
FARMVILLE*     CLOUDY   N/A N/A N/A SW9G16    29.68F
CREWE*         CLOUDY    61  61 100 S6        29.71S
FORT PICKETT*  CLOUDY    60  60 100 S9G20     29.72F
CHASE CITY*    CLOUDY    60  60 100 SW3       29.73S
CLARKSVILLE*   CLOUDY    61  61 100 S7        29.73S
SOUTH HILL*    CLOUDY    59  59 100 S8        29.79F
LAWRENCEVILLE* CLOUDY    60  59  97 W3        29.73F
EMPORIA*         N/A     61  61 100 SE8       29.76S
$$

VAZ088>098-231400-
SOUTHEAST VIRGINIA

CITY           SKY/WX    TMP DP  RH WIND       PRES   REMARKS
NORFOLK        MOCLDY    64  59  83 S21G29    29.77F
VIRGINIA BEACH MOCLDY    63  57  81 S14G22    29.79F
NORFOLK NAVAL  MOCLDY    64  58  80 S16G29    29.78F
WEST POINT*    CLOUDY    58  56  94 S8        29.75F
SALUDA*        CLOUDY    57  57 100 S13G22    29.74F
NEWPORT NEWS   LGT RAIN  63  58  83 S18G26    29.75F
LANGLEY AFB    MOCLDY    63  59  88 S16       29.75F
FORT EUSTIS    LGT RAIN  62  58  88 S12G22    29.72F
WILLIAMSBURG*  CLOUDY    63  59  88 S9G22     29.75F
HR EXEC AP*    PTSUNNY   65  59  81 S16G24    29.78F
FRANKLIN*      CLOUDY    65  59  83 S18G28    29.76F
US460-WAKEFLD  LGT RAIN  64  61  90 S9G21     29.73F
$$

VAZ020-022-025-037-045-231400-
WEST CENTRAL AND SOUTHWEST VIRGINIA

CITY           SKY/WX    TMP DP  RH WIND       PRES   REMARKS
STAUNTON*      FOG       45  45  99 SW3       29.69R VSB 3/4
WAYNESBORO*    FAIR      53  51  94 S6        29.67R
HOT SPRINGS VA CLOUDY    46  46 100 W22G28    29.70S
LYNCHBURG      MOCLDY    57  55  93 SW8       29.70R
DANVILLE       MOCLDY    60  60 100 SW7       29.73S
SOUTH BOSTON*  CLOUDY    60  59  95 SW9       29.74R
MARTINSVILLE   MOCLDY    58  55  91 SW5       29.75S
ROANOKE        MOCLDY    48  47  96 N3        29.73R
BLACKSBURG     CLOUDY    51  49  93 CALM      29.76R
DUBLIN*        CLOUDY    52  47  82 W8        29.74S
MARION*        CLOUDY    51  42  72 SW13G20   29.78S
HILLSVILLE*    CLOUDY    51  49  92 NW5       29.74R
RICHLANDS*     CLOUDY    47  37  67 SW10G18   29.77R
WISE*          FAIR      43  32  65 SW17G25   29.78R
ABINGDON*      CLOUDY    50  34  54 W23G32    29.80R
$$

MDZ021>025-VAZ099-100-231400-
SOUTHERN MARYLAND AND THE DELMARVA PENINSULA

CITY           SKY/WX    TMP DP  RH WIND       PRES   REMARKS
PATUXENT RIVER LGT RAIN  59  58  96 S13G26    29.71F FOG
BAY BRIDGE APT CLOUDY    54  54 100 S22       29.68F FOG
LEONARDTOWN    CLOUDY    59  55  88 SW8       29.72S
DOVER          LGT RAIN  58  58 100 S20G25    29.70F
GEORGETOWN     LGT RAIN  60  57  89 S22G28    29.75F
EASTON         RAIN     N/A N/A N/A S20G26    29.74F
CAMBRIDGE      CLOUDY    57  55  94 S21G28    29.71F FOG
SALISBURY      RAIN      59  58  96 S18G24    29.77F FOG
OCEAN CITY     LGT RAIN  48  48 100 SW8       29.80F VSB 1/2
WALLOPS ISLAND LGT RAIN  50  50 100 S16G22    29.81F VSB 1
ACCOMACK*      LGT RAIN  57  56  97 S17G24    29.79S
$$

NCZ012>017-030>032-231400-
NORTH CENTRAL AND EASTERN NORTH CAROLINA

CITY           SKY/WX    TMP DP  RH WIND       PRES   REMARKS
ROANOKE RAPIDS LGT RAIN  64  63  94 S20G25    29.75F
RALEIGH        LGT RAIN  63  62  97 SW20      29.77S
ELIZABETH CITY MOCLDY    64  64 100 S13G21    29.83F
AHOSKIE*       CLOUDY    65  61  87 S12G22    29.78F
EDENTON*       CLOUDY    62  59  91 S14       29.83F
CURRITUCK*     FAIR      62  58  88 S10G21    29.83F
KILL DEVIL HLS MOCLDY   N/A N/A N/A S12G20    29.86F
MANTEO         MOCLDY    56  56  98 S18       29.88F
CAPE HATTERAS  NOT AVBL
TARBORO*       NOT AVBL
GOLDSBORO      LGT RAIN  64  63  94 S14G24    29.80S
WASHINGTON     LGT RAIN  66  62  85 S14G25    29.83F
GREENVILLE     LGT RAIN  64  63  94 S17G23    29.85R
NEW BERN       LGT RAIN  66  63  90 S20G26    29.86F
WILMINGTON     LGT RAIN  65  65 100 SW15G22   29.90R FOG
$$

VAZ048-231400-
ELSEWHERE

CITY           SKY/WX    TMP DP  RH WIND       PRES   REMARKS
HARRISBURG PA  LGT RAIN  44  44 100 SE8       29.62F VSB 1/4
BALTIMORE      CLOUDY    53  53 100 S8        29.65F
ANNAPOLIS      FOG       49  49 100 S16G23    29.69F VSB 1
ANDREWS AFB    CLOUDY    60  58  94 S21G35    29.65F
PHILADELPHIA   LGT RAIN  57  53  86 S13G24    29.70F
HENDERSON NC   CLOUDY    60  58  94 SW12G17   29.74F
GREENSBORO     CLOUDY    60  60 100 SW16G24   29.74S
ROCKY MOUNT    LGT RAIN  64  64 100 S14G24    29.78F
$$

VAZ100-231400-
MARINE

STATION/POSITION TIME  TEMP    WIND        PRES    WAVE   SWELL
                       AIR SEA DIR/SP/G            HT/PER HT/PER
                 (UTC) (F)     (DEG/KT/KT) (MB)    (FT/S) (FT/S)
BRANDYWINE LGT   1236   44     170/ 23/ 25 1007.9F
CAPE MAY NJ      1248   48 35  170/ 19/ 28 1007.6F
LEWES DE         1248   57 35  180/ 12/ 21 1007.3F
15NM E FENWICK I 1250   47 38  160/ 16/ 17 1010.0F   3/ 4
OCEAN-CITY-INLET 1248   46 38  230/ 12/ 14 1009.8F
WACHAPREAGUE VA  1248   49 43  190/ 15/ 19 1008.8F
THOMAS POINT MD  1300   45 34  170/ 24/ 27   N/A
COVE POINT MD    1248   46     190/ 13/ 22 1007.2R
SOLOMONS ISLAND  1248   56 36  260/ 12/ 20 1006.2R
BISHOPS HEAD MD  1248   44 37  160/ 22/ 25 1006.6F
PINEY POINT MD   1248          230/ 17/ 19   N/A
CAMBRIDGE MD     1248   55 36              1006.7F
LEWISETTA VA     1248   59 39  190/ 20/ 27 1005.6F
RAPPAHANNOCK LGT 1248          160/ 18/ 20 1008.9F
YORK RVR RNG VA  1248   51     190/ 18/ 19 1008.3F
YORKTOWN VA      1248   62 37  190/ 10/ 16 1007.3F
DOMINION TERM VA 1248   59     180/ 19/ 27 1007.9F
KIPTOPEKE VA     1248      38  170/ 21/ 25   N/A
CAPE HENRY VA    1248   52     140/ 10/ 13   N/A
WILLOUBY STN VA  1248          190/ 20/ 23 1007.9F
S CRANEY ISL VA  1248   59     190/ 16/ 22 1008.1F
CAPE HENRY BUOY  1230      40                N/A     2/ 4
CAPE CHARLES BUO 1221      39                N/A     2/ 3
64NM E OF VA BCH 1250   63 58  190/ 19/ 23 1012.1F   5/ 6   2/ 9
DUCK PIER NC     1248   62 41  180/ 21/ 25 1010.2F
44100 DUCK FRF   1245      39                N/A     3/ 6
44056 DUCK FRF   1300      42                N/A     3/ 6
OREGON INLET NC  1236   56 44  160/ 12/ 18 1012.4F
HATTERAS NC      1248   67 54  180/  9/ 19 1012.5F
DIAMOND SHLS NC  1250   72 70  180/ 29/ 39 1013.5F  10/ 7
CAPE LOOKOUT NC  1300          180/ 14/ 14 1013.1F
$$



USA.gov is the U.S. government's official web portal to all federal, state and local government web resources and services.